{"data":{"norad_id":56121,"epoch":"2026-09-20T07:38:39.651936Z","epoch_age_seconds":124263,"freshness":"FRESH","line1":"1 56121U 23046AE  26263.31851449 -.00000018  00000+0  88614-5 0  9995","line2":"2 56121  43.0012 128.0399 0001153 251.9143 108.1583 15.27575212191963","mean_motion":15.27575212,"eccentricity":0.0001153,"inclination_deg":43.0012,"raan_deg":128.0399,"arg_perigee_deg":251.9143,"mean_anomaly_deg":108.1583,"bstar":8.8614e-6,"rev_number":19196,"period_min":94.26704418139,"perigee_km":482.27233666164,"apogee_km":483.85452948151,"semimajor_km":6861.2004330716,"source":"CELESTRAK","updated_at":"2026-09-21T09:00:33.385714Z"}}